Voltar ao catálogo

CZ-4B DEB

AtivoSSO
NORAD 27433·DEBRIS·🇨🇳 China

Lançado May 15, 2002 de Taiyuan Satellite Launch Center

Loading…

Próximas Passagens (próximas 24 horas)

TLE

AtualizadoSource: Space-Track

Época: Sep 14, 2026, 14:51 UTC

1 27433U 02024D   26257.61909244  .00000225  00000-0  13996-3 0  9994
2 27433  98.9126 306.2887 0013303 245.0089 114.9702 14.14751525253973

Acompanhe CZ-4B DEB em tempo real com AllMySat

Download on the App Store